User: anonymous   Login
Location: Anjeux
(47.8815°N, 6.2076°E)
Time: 18:41:37
(UTC+00:00)
Language:

PCSat - Orbit

View from above orbital plane
View from above orbital plane
View from above satellite
View from above satellite

Ground track
Ground track

The orbit data is extracted from the following two-line orbital elements,

1 26931U 01043C   21339.94662954  .00000012  00000-0  36333-4 0  9997
2 26931  67.0501 197.8417 0006000 279.6484  80.3939 14.30646721 53728
Epoch (UTC): 05 December 2021 22:43:08
Eccentricity: 0.0006000
inclination: 67.0501°
perigee height: 785 km
apogee height: 794 km
right ascension of ascending node: 197.8417°
argument of perigee: 279.6484°
revolutions per day: 14.30646721
mean anomaly at epoch: 80.3939°
orbit number at epoch: 5372

The dashed part of the orbit path shows where the satellite is in the earth's shadow,  

DLR